Statesville, NC

12:10 PM EST on February 09, 2016 (GMT -0500)
Statesville Municipal

Weather History for KSVH - November, 2013

Change the Weather History Date:

Sunday, November 10, 2013

  Actual Average (KHKY) Record (KHKY)
Temperature  
Mean Temperature 52 °F -  
Max Temperature 71 °F 63 °F 86 °F (1996)
Min Temperature 32 °F 40 °F 24 °F (1973)
Degree Days  
Heating Degree Days 14    
Growing Degree Days 2 (Base 50)    
Moisture  
Dew Point 31 °F    
Average Humidity 52    
Maximum Humidity 96    
Minimum Humidity 21    
Precipitation  
Precipitation 0.00 in - - ()
Sea Level Pressure  
Sea Level Pressure 30.18 in    
Wind  
Wind Speed 4 mph (WNW)    
Max Wind Speed 15 mph    
Max Gust Speed 21 mph    
Visibility 10 miles    
Events      
Averages and records for this station are not official NWS values.
T = Trace of Precipitation, MM = Missing Value Source: NWS Daily Summary

Daily Weather History Graph

Daily Weather History Graph

Search for Another Location

Airport or City:

Trip Planner

Search our weather history database for the weather conditions in past years. The results will help you decide how hot, cold, wet, or windy it might be!

Date:

Astronomy

Nov. 10, 2013 Rise Set
Actual Time 6:55 AM EST 5:20 PM EST
Civil Twilight 6:28 AM EST 5:47 PM EST
Nautical Twilight 5:57 AM EST 6:17 PM EST
Astronomical Twilight 5:27 AM EST 6:47 PM EST
Moon 1:11 PM EST (11/10) No Moon Set
Length of Visible Light 11h 18m
Length of Day
10h 25m
First Quarter, 55% of the Moon is Illuminated
Nov 10
First Quarter
Nov 17
Full
Nov 25
Last Quarter
Dec 2
New
Dec 9
First Quarter

Hourly Weather History & Observations

Time (EST) Temp. Windchill Dew Point Humidity Pressure Visibility Wind Dir Wind Speed Gust Speed Precip Events Conditions
12:15 AM 41.4 °F - 31.6 °F 68% 30.18 in 10.0 mi Calm Calm - N/A   Clear
12:35 AM 42.1 °F 40.2 °F 32.0 °F 67% 30.18 in 10.0 mi NW 3.5 mph - N/A   Clear
12:55 AM 39.2 °F - 32.0 °F 75% 30.17 in 10.0 mi Calm Calm - N/A   Clear
1:15 AM 41.4 °F - 32.0 °F 69% 30.17 in 10.0 mi Calm Calm - N/A   Clear
1:35 AM 38.1 °F 35.7 °F 32.0 °F 79% 30.17 in 10.0 mi West 3.5 mph - N/A   Clear
1:55 AM 38.5 °F - 32.2 °F 78% 30.17 in 10.0 mi Calm Calm - N/A   Clear
2:15 AM 40.1 °F - 32.2 °F 73% 30.18 in 10.0 mi Calm Calm - N/A   Clear
2:35 AM 38.7 °F - 32.0 °F 77% 30.18 in 10.0 mi Calm Calm - N/A   Clear
2:55 AM 36.0 °F - 32.0 °F 86% 30.18 in 10.0 mi Calm Calm - N/A   Clear
3:15 AM 34.5 °F - 32.0 °F 90% 30.18 in 10.0 mi Calm Calm - N/A   Clear
3:35 AM 36.3 °F - 32.0 °F 84% 30.17 in 10.0 mi Calm Calm - N/A   Clear
3:55 AM 36.9 °F - 32.2 °F 83% 30.17 in 10.0 mi Calm Calm - N/A   Clear
4:15 AM 34.5 °F 31.6 °F 32.0 °F 90% 30.17 in 10.0 mi SW 3.5 mph - N/A   Clear
4:35 AM 35.2 °F - 32.2 °F 89% 30.16 in 10.0 mi Calm Calm - N/A   Clear
4:55 AM 38.5 °F - 32.0 °F 78% 30.17 in 10.0 mi Calm Calm - N/A   Clear
5:15 AM 36.5 °F - 32.0 °F 84% 30.18 in 10.0 mi Calm Calm - N/A   Clear
5:35 AM 35.6 °F - 31.8 °F 86% 30.18 in 10.0 mi Calm Calm - N/A   Clear
5:55 AM 34.2 °F - 32.0 °F 92% 30.18 in 10.0 mi Calm Calm - N/A   Clear
6:15 AM 32.5 °F - 30.9 °F 94% 30.19 in 10.0 mi Calm Calm - N/A   Clear
6:35 AM 32.0 °F 28.7 °F 31.1 °F 96% 30.19 in 10.0 mi SW 3.5 mph - N/A   Clear
6:55 AM 32.0 °F 28.7 °F 31.1 °F 96% 30.20 in 10.0 mi SSW 3.5 mph - N/A   Clear
7:15 AM 32.5 °F - 31.5 °F 96% 30.20 in 10.0 mi Calm Calm - N/A   Clear
7:35 AM 33.8 °F - 32.0 °F 93% 30.20 in 10.0 mi Calm Calm - N/A   Clear
7:55 AM 38.7 °F 36.3 °F 33.1 °F 80% 30.21 in 10.0 mi WNW 3.5 mph - N/A   Clear
8:15 AM 44.6 °F - 37.0 °F 75% 30.21 in 10.0 mi Calm Calm - N/A   Clear
8:35 AM 43.7 °F - 35.4 °F 73% 30.21 in 10.0 mi Calm Calm - N/A   Clear
8:55 AM 50.0 °F - 36.1 °F 59% 30.21 in 10.0 mi Calm Calm - N/A   Clear
9:15 AM 55.8 °F - 36.3 °F 48% 30.21 in 10.0 mi WNW 5.8 mph - N/A   Clear
9:35 AM 57.6 °F - 34.9 °F 43% 30.21 in 10.0 mi West 9.2 mph - N/A   Clear
9:55 AM 59.0 °F - 35.1 °F 41% 30.21 in 10.0 mi West 6.9 mph - N/A   Clear
10:15 AM 60.8 °F - 35.4 °F 39% 30.20 in 10.0 mi WSW 10.4 mph - N/A   Clear
10:35 AM 61.5 °F - 34.5 °F 36% 30.20 in 10.0 mi West 15.0 mph - N/A   Clear
10:55 AM 62.8 °F - 34.2 °F 34% 30.20 in 10.0 mi West 11.5 mph 16.1 mph N/A   Clear
11:15 AM 64.2 °F - 33.8 °F 32% 30.19 in 10.0 mi West 9.2 mph - N/A   Clear
11:35 AM 65.1 °F - 34.5 °F 32% 30.18 in 10.0 mi WSW 5.8 mph - N/A   Clear
11:55 AM 65.8 °F - 33.4 °F 30% 30.18 in 10.0 mi West 11.5 mph 16.1 mph N/A   Clear
12:15 PM 67.8 °F - 32.7 °F 27% 30.17 in 10.0 mi WNW 10.4 mph 17.3 mph N/A   Clear
12:35 PM 68.7 °F - 34.0 °F 28% 30.16 in 10.0 mi WNW 9.2 mph 16.1 mph N/A   Clear
12:55 PM 68.7 °F - 34.2 °F 28% 30.15 in 10.0 mi WNW 8.1 mph 16.1 mph N/A   Clear
1:15 PM 67.8 °F - 32.4 °F 27% 30.14 in 10.0 mi West 10.4 mph 20.7 mph N/A   Clear
1:35 PM 69.3 °F - 33.1 °F 26% 30.13 in 10.0 mi West 9.2 mph 16.1 mph N/A   Clear
1:55 PM 68.9 °F - 32.2 °F 26% 30.12 in 10.0 mi West 11.5 mph 20.7 mph N/A   Clear
2:15 PM 70.2 °F - 33.3 °F 26% 30.11 in 10.0 mi West 8.1 mph - N/A   Clear
2:35 PM 71.6 °F - 31.3 °F 23% 30.11 in 10.0 mi WSW 11.5 mph - N/A   Clear
2:55 PM 71.2 °F - 29.5 °F 21% 30.11 in 10.0 mi West 15.0 mph 20.7 mph N/A   Clear
3:15 PM 71.1 °F - 29.5 °F 21% 30.11 in 10.0 mi West 11.5 mph 18.4 mph N/A   Clear
3:35 PM 70.0 °F - 30.6 °F 23% 30.11 in 10.0 mi WNW 6.9 mph - N/A   Clear
3:55 PM 68.5 °F - 30.4 °F 24% 30.11 in 10.0 mi NNW 9.2 mph - N/A   Clear
4:15 PM 67.8 °F - 30.6 °F 25% 30.12 in 10.0 mi NW 9.2 mph 17.3 mph N/A   Clear
4:35 PM 66.2 °F - 30.2 °F 26% 30.12 in 10.0 mi WNW 10.4 mph 18.4 mph N/A   Clear
4:55 PM 64.8 °F - 28.2 °F 25% 30.14 in 10.0 mi WNW 9.2 mph - N/A   Clear
5:15 PM 62.2 °F - 28.4 °F 28% 30.14 in 10.0 mi NW 6.9 mph - N/A   Clear
5:35 PM 61.0 °F - 28.2 °F 29% 30.15 in 10.0 mi WNW 8.1 mph - N/A   Clear
5:55 PM 60.1 °F - 28.9 °F 31% 30.15 in 10.0 mi NW 9.2 mph - N/A   Clear
6:15 PM 59.5 °F - 29.1 °F 32% 30.16 in 10.0 mi WNW 8.1 mph - N/A   Clear
6:35 PM 58.6 °F - 29.3 °F 33% 30.17 in 10.0 mi WNW 5.8 mph - N/A   Clear
6:55 PM 58.1 °F - 29.8 °F 34% 30.18 in 10.0 mi WNW 6.9 mph - N/A   Clear
7:15 PM 57.9 °F - 29.8 °F 34% 30.18 in 10.0 mi WNW 8.1 mph - N/A   Clear
7:35 PM 56.1 °F - 29.8 °F 37% 30.19 in 10.0 mi West 5.8 mph - N/A   Clear
7:55 PM 53.4 °F - 30.2 °F 41% 30.19 in 10.0 mi West 4.6 mph - N/A   Clear
8:15 PM 55.0 °F - 29.8 °F 38% 30.19 in 10.0 mi West 6.9 mph - N/A   Clear
8:35 PM 50.4 °F - 30.0 °F 46% 30.20 in 10.0 mi WSW 3.5 mph - N/A   Clear
8:55 PM 55.0 °F - 29.7 °F 38% 30.20 in 10.0 mi WNW 4.6 mph - N/A   Clear
9:15 PM 52.7 °F - 30.0 °F 42% 30.21 in 10.0 mi NW 4.6 mph - N/A   Clear
9:35 PM 50.5 °F - 30.4 °F 46% 30.21 in 10.0 mi North 5.8 mph - N/A   Clear
9:55 PM 52.2 °F - 29.5 °F 42% 30.22 in 10.0 mi North 4.6 mph - N/A   Clear
10:15 PM 51.4 °F - 28.4 °F 41% 30.23 in 10.0 mi North 4.6 mph - N/A   Clear
10:35 PM 51.1 °F - 27.5 °F 40% 30.24 in 10.0 mi NNW 4.6 mph - N/A   Clear
10:55 PM 50.0 °F - 26.6 °F 40% 30.24 in 10.0 mi NNE 3.5 mph - N/A   Clear
11:15 PM 46.0 °F 43.9 °F 26.2 °F 46% 30.24 in 10.0 mi ENE 4.6 mph - N/A   Clear
11:35 PM 45.9 °F 42.9 °F 26.4 °F 47% 30.24 in 10.0 mi NNE 5.8 mph - N/A   Clear
11:55 PM 45.7 °F 43.4 °F 25.9 °F 46% 30.25 in 10.0 mi NE 4.6 mph - N/A   Clear